Terug naar catalogus

CZ-4 DEB

ActiefSSO
NORAD 35327·DEBRIS·🇨🇳 China

Gelanceerd Oct 14, 1999 vanaf Taiyuan Satellite Launch Center

Loading…

Volgende Passages (komende 24 uur)

TLE

VerouderendSource: Space-Track

Epoch: Sep 7, 2026, 11:23 UTC

1 35327U 99057SF  26250.47457346  .00001624  00000-0  31098-3 0  9992
2 35327  98.4631 343.0038 0071118 216.3446 143.2914 14.63694321725375

Volg CZ-4 DEB in realtime met AllMySat

Download on the App Store